PBO Station Position Time Series. Reference Frame : NAM14
Format Version,1.1.1
4-character ID,IDOG
Station name,Indio_Hills
Begin Date, 2010-05-05
End Date, 2023-06-26
Release Date, 2023-06-27
Reference position, 33.7967979681 North Latitude, -116.2215141582 East Longitude, 434.93104 meters elevation,
Date, North (mm), East (mm), Vertical (mm), North Std. Deviation (mm), East Std. Deviation (mm),              Vertical Std. Deviation (mm), Quality,
2010-05-05,0.00, 0.00, 0.00, 1.90, 1.61, 7.27, repro,
2010-05-06,-0.49, -0.27, 5.43, 1.89, 1.61, 7.26, repro,
2010-05-07,1.26, -0.08, 4.91, 1.92, 1.64, 7.36, repro,
2010-05-08,0.85, 0.38, -0.47, 1.91, 1.62, 7.37, repro,
2010-05-09,-1.04, 2.32, -1.76, 1.91, 1.62, 7.32, repro,
2010-05-10,0.23, -0.91, 6.14, 1.93, 1.65, 7.34, repro,
2010-05-11,0.09, 0.07, -4.03, 1.91, 1.61, 7.37, repro,
2010-05-12,0.64, 0.11, 4.73, 1.95, 1.62, 7.48, repro,
2010-05-13,0.16, 0.56, 6.85, 1.92, 1.63, 7.39, repro,
2010-05-14,0.86, -0.13, 2.93, 1.96, 1.69, 7.41, repro,
2010-05-15,0.37, -0.24, 1.76, 1.94, 1.66, 7.34, repro,
2010-05-16,0.54, 0.16, 6.08, 1.91, 1.61, 7.24, repro,
2010-05-17,0.79, -0.22, 4.09, 1.89, 1.61, 7.22, repro,
2010-05-18,-0.67, 1.35, -0.80, 1.91, 1.62, 7.30, repro,
2010-05-19,-1.33, 0.04, 12.72, 2.01, 1.70, 7.69, repro,
2010-05-20,-0.02, 0.30, 10.89, 2.00, 1.69, 7.60, repro,
2010-05-21,-2.30, -0.81, 13.18, 1.96, 1.65, 7.46, repro,
2010-05-22,-2.21, -0.31, 13.92, 1.95, 1.63, 7.40, repro,
2010-05-23,-0.38, -1.27, 10.10, 1.95, 1.63, 7.40, repro,
2010-05-24,0.97, -0.27, 0.42, 1.96, 1.63, 7.42, repro,
2010-05-25,0.21, 1.28, 2.09, 1.96, 1.65, 7.45, repro,
2010-05-26,-1.19, -1.69, 4.74, 1.91, 1.63, 7.25, repro,
2010-05-27,-0.21, 1.39, 6.15, 1.93, 1.63, 7.26, repro,
2010-05-28,0.25, -0.63, 5.62, 1.93, 1.67, 7.32, repro,
2010-05-29,-0.51, -0.29, 7.78, 1.92, 1.63, 7.27, repro,
2010-05-30,0.48, 0.42, 12.13, 1.95, 1.68, 7.39, repro,
2010-05-31,0.82, 0.25, 6.26, 1.93, 1.67, 7.34, repro,
2010-06-01,-0.28, 0.27, 2.92, 1.91, 1.63, 7.20, repro,
2010-06-02,0.26, 0.08, 6.35, 1.91, 1.62, 7.18, repro,
2010-06-03,0.36, 0.71, 6.88, 1.92, 1.63, 7.23, repro,
2010-06-04,1.03, 1.48, 7.01, 1.95, 1.69, 7.39, repro,
2010-06-05,-0.18, 0.67, 5.10, 1.97, 1.71, 7.44, repro,
2010-06-06,0.37, 0.71, 9.74, 1.92, 1.68, 7.37, repro,
2010-06-07,-0.98, 0.38, 1.41, 1.94, 1.67, 7.34, repro,
2010-06-08,0.92, -0.31, 7.28, 1.93, 1.66, 7.30, repro,
2010-06-09,-0.22, 0.70, -1.25, 1.94, 1.68, 7.34, repro,
2010-06-10,-0.66, 0.50, 8.40, 1.93, 1.66, 7.30, repro,
2010-06-11,-1.55, -0.38, 4.32, 1.93, 1.65, 7.30, repro,
2010-06-12,-1.34, 0.17, 6.48, 1.93, 1.64, 7.27, repro,
2010-06-13,-0.57, 0.03, 0.73, 1.94, 1.67, 7.37, repro,
2010-06-14,-0.07, 0.80, 0.18, 1.92, 1.63, 7.23, repro,
2010-06-15,-0.79, 0.87, 7.60, 1.95, 1.68, 7.39, repro,
2010-06-16,0.74, 0.48, 6.66, 1.97, 1.77, 7.65, repro,
2010-06-17,-0.56, 0.31, 5.81, 1.95, 1.66, 7.32, repro,
2010-06-18,-0.46, -1.01, 10.84, 1.95, 1.67, 7.36, repro,
2010-06-19,-1.51, -0.37, 7.71, 1.92, 1.66, 7.31, repro,
2010-06-20,-1.64, -0.11, 3.87, 1.94, 1.69, 7.32, repro,
2010-06-21,-0.88, 0.36, 6.78, 1.94, 1.74, 7.44, repro,
2010-06-22,-0.86, -0.24, 7.42, 1.90, 1.63, 7.20, repro,
2010-06-23,0.11, 0.20, 3.59, 1.91, 1.64, 7.25, repro,
2010-06-24,0.17, -1.20, 7.09, 1.94, 1.69, 7.38, repro,
2010-06-25,-0.36, 0.27, 10.80, 1.94, 1.69, 7.39, repro,
2010-06-26,-0.38, -0.30, 9.56, 1.91, 1.65, 7.26, repro,
2010-06-27,-0.12, -1.52, 11.18, 1.90, 1.63, 7.20, repro,
2010-06-28,0.85, -0.35, 6.60, 1.91, 1.63, 7.25, repro,
2010-06-29,1.84, -1.53, 5.79, 1.91, 1.64, 7.23, repro,
2010-06-30,-0.15, -1.16, 6.32, 1.91, 1.63, 7.20, repro,
2010-07-01,-1.69, -0.58, 9.90, 1.91, 1.65, 7.28, repro,
2010-07-02,-1.11, -0.71, 9.47, 1.88, 1.64, 7.16, repro,
2010-07-03,-0.64, -0.94, 11.28, 1.89, 1.62, 7.18, repro,
2010-07-04,-0.93, -1.30, 7.18, 1.90, 1.63, 7.18, repro,
2010-07-05,-0.84, -0.63, 9.52, 1.90, 1.62, 7.18, repro,
2010-07-06,-1.03, -0.83, 15.03, 1.90, 1.64, 7.24, repro,
2010-07-07,-0.67, -1.05, 9.16, 1.90, 1.69, 7.35, repro,
2010-07-08,-0.07, -0.87, 1.84, 1.89, 1.63, 7.20, repro,
2010-07-09,0.48, -0.95, 1.19, 1.89, 1.62, 7.13, repro,
2010-07-10,0.19, -0.42, 6.51, 1.90, 1.63, 7.18, repro,
2010-07-11,0.72, -3.36, 6.82, 1.91, 1.64, 7.21, repro,
2010-07-12,0.28, -1.70, 6.51, 1.89, 1.64, 7.19, repro,
2010-07-13,2.62, -1.45, 7.99, 1.91, 1.68, 7.33, repro,
2010-07-14,1.44, -2.84, -1.77, 1.89, 1.64, 7.22, repro,
2010-07-15,0.39, -1.06, -1.09, 2.00, 1.75, 7.54, repro,
2010-07-16,1.11, 2.34, 6.82, 1.91, 1.65, 7.26, repro,
2010-07-17,-2.44, 0.69, 0.86, 1.92, 1.70, 7.32, repro,
2010-07-18,-0.52, -0.37, 5.67, 1.94, 1.72, 7.46, repro,
2010-07-19,-0.55, -1.19, -2.16, 1.89, 1.64, 7.22, repro,
2010-07-20,1.82, 0.22, -3.11, 1.89, 1.64, 7.20, repro,
2010-07-21,-0.90, -1.90, -4.50, 1.92, 1.65, 7.29, repro,
2010-07-22,-0.54, 0.29, 5.48, 1.90, 1.66, 7.27, repro,
2010-07-23,-0.04, -0.67, 4.82, 1.88, 1.64, 7.18, repro,
2010-07-24,0.10, -1.27, -0.36, 1.90, 1.65, 7.25, repro,
2010-07-25,0.36, -2.55, -2.19, 1.90, 1.63, 7.20, repro,
2010-07-26,-1.72, -0.78, 6.89, 1.89, 1.64, 7.21, repro,
2010-07-27,-0.77, 0.25, 0.96, 1.90, 1.64, 7.23, repro,
2010-07-28,0.78, -2.13, 0.41, 1.91, 1.69, 7.31, repro,
2010-07-29,0.31, -0.83, 5.39, 1.93, 1.69, 7.38, repro,
2010-07-30,-0.39, -2.14, 3.62, 1.92, 1.70, 7.35, repro,
2010-07-31,-0.00, -1.82, 0.31, 1.90, 1.64, 7.23, repro,
2010-08-01,-0.47, 0.13, 9.39, 1.90, 1.65, 7.26, repro,
2010-08-02,-0.43, -0.96, 7.68, 1.89, 1.65, 7.28, repro,
2010-08-03,2.00, -1.10, 0.76, 1.91, 1.68, 7.30, repro,
2010-08-04,0.48, -2.20, 4.07, 1.91, 1.68, 7.31, repro,
2010-08-05,0.83, -1.22, 9.29, 1.91, 1.69, 7.33, repro,
2010-08-06,0.84, -0.83, -7.21, 1.91, 1.65, 7.25, repro,
2010-08-07,-2.41, -2.98, 13.60, 1.98, 1.71, 7.43, repro,
2010-08-08,-1.43, -1.90, 9.69, 1.89, 1.65, 7.26, repro,
2010-08-09,-0.53, -1.74, 5.82, 1.89, 1.64, 7.24, repro,
2010-08-10,0.21, -1.96, -2.57, 1.89, 1.64, 7.25, repro,
2010-08-11,-2.37, -3.58, 6.66, 1.88, 1.63, 7.17, repro,
2010-08-12,-1.23, -0.34, 3.76, 1.89, 1.64, 7.22, repro,
2010-08-13,-1.22, -1.49, 11.47, 1.89, 1.64, 7.22, repro,
2010-08-14,0.03, -1.87, 5.56, 1.92, 1.69, 7.36, repro,
2010-08-15,-0.56, -1.95, 3.30, 1.88, 1.64, 7.23, repro,
2010-08-16,0.10, -1.56, 0.21, 1.89, 1.63, 7.21, repro,
2010-08-17,-1.12, -2.09, 7.24, 1.88, 1.65, 7.22, repro,
2010-08-18,-1.58, -0.56, 10.42, 1.90, 1.68, 7.31, repro,
2010-08-19,-1.12, -2.43, -0.17, 1.93, 1.71, 7.44, repro,
2010-08-20,-1.06, -1.70, 7.03, 1.88, 1.63, 7.17, repro,
2010-08-21,0.97, -0.58, -0.87, 1.91, 1.69, 7.35, repro,
2010-08-22,1.40, -1.35, 3.59, 1.92, 1.66, 7.31, repro,
2010-08-23,-0.90, -2.67, -0.21, 1.88, 1.64, 7.19, repro,
2010-08-24,-0.75, -0.57, -7.50, 1.98, 1.66, 7.44, repro,
2010-08-25,-0.60, -1.98, 4.28, 1.88, 1.63, 7.18, repro,
2010-08-26,0.24, -1.10, -6.15, 1.93, 1.69, 7.50, repro,
2010-08-27,0.96, -2.43, -1.43, 1.95, 1.74, 7.61, repro,
2010-08-28,-0.80, -1.97, 20.34, 1.89, 1.65, 7.35, repro,
2010-08-29,-2.77, -1.90, 4.70, 1.86, 1.62, 7.16, repro,
2010-08-30,-2.58, -0.61, 6.75, 1.88, 1.62, 7.12, repro,
2010-08-31,-0.09, -1.33, 4.11, 1.88, 1.62, 7.16, repro,
2010-09-01,-0.65, -1.08, 2.60, 1.87, 1.64, 7.22, repro,
2010-09-02,-0.36, -1.22, 4.56, 1.87, 1.64, 7.24, repro,
2010-09-03,-1.34, -1.44, 2.25, 1.86, 1.62, 7.14, repro,
2010-09-04,-0.97, -0.23, -1.77, 1.85, 1.62, 7.10, repro,
2010-09-05,-0.02, -1.37, 8.46, 1.86, 1.60, 7.10, repro,
2010-09-06,-0.45, -0.34, 7.71, 1.87, 1.63, 7.25, repro,
2010-09-07,-0.02, -0.25, 11.02, 1.87, 1.63, 7.24, repro,
2010-09-08,-0.79, -1.06, 0.75, 1.87, 1.63, 7.21, repro,
2010-09-09,-0.46, -1.50, 2.91, 1.88, 1.64, 7.26, repro,
2010-09-10,-0.74, 0.55, 1.28, 1.87, 1.61, 7.10, repro,
2010-09-11,-1.24, 0.04, 6.73, 1.89, 1.67, 7.25, repro,
2010-09-12,1.20, -1.20, -4.04, 1.85, 1.62, 7.10, repro,
2010-09-13,-0.95, -0.72, 3.42, 1.87, 1.65, 7.25, repro,
2010-09-14,-0.18, -0.64, 6.76, 1.88, 1.63, 7.25, repro,
2010-09-15,-1.89, -0.80, 0.75, 1.86, 1.62, 7.18, repro,
2010-09-16,-0.88, -0.02, 0.14, 1.88, 1.63, 7.24, repro,
2010-09-17,-1.02, 0.07, 3.50, 1.84, 1.61, 7.10, repro,
2010-09-18,0.04, -0.64, 6.44, 1.85, 1.62, 7.15, repro,
2010-09-19,0.05, -1.95, 4.88, 1.87, 1.63, 7.24, repro,
2010-09-20,-2.75, 0.15, 9.45, 1.86, 1.62, 7.19, repro,
2010-09-21,-1.91, -1.22, 1.81, 1.90, 1.68, 7.42, repro,
2010-09-22,-3.76, -1.32, 3.94, 1.92, 1.70, 7.47, repro,
2010-09-23,-0.79, -0.19, 7.58, 1.89, 1.62, 7.20, repro,
2010-09-24,-0.79, -0.56, 3.60, 1.87, 1.62, 7.18, repro,
2010-09-25,-0.29, -1.08, 5.20, 1.87, 1.63, 7.21, repro,
2010-09-26,0.76, -1.09, -1.20, 1.86, 1.62, 7.17, repro,
2010-09-27,-2.03, -0.91, 3.37, 1.91, 1.66, 7.19, repro,
2010-09-28,-0.28, -0.92, -5.80, 1.91, 1.67, 7.20, repro,
2010-09-29,-1.41, -2.23, 7.91, 1.90, 1.64, 7.25, repro,
2010-09-30,-1.85, -0.96, 13.81, 1.95, 1.72, 7.54, repro,
2010-10-01,-0.80, -2.17, 5.43, 1.90, 1.65, 7.29, repro,
2010-10-02,-1.06, -0.47, 7.02, 1.90, 1.64, 7.30, repro,
2010-10-03,-1.34, -0.84, -0.58, 1.91, 1.66, 7.32, repro,
2010-10-04,-0.14, -0.46, 9.69, 1.92, 1.65, 7.32, repro,
2010-10-05,-1.91, -0.83, 0.33, 1.89, 1.65, 7.30, repro,
2010-10-06,-0.93, 0.33, 4.09, 1.87, 1.63, 7.22, repro,
2010-10-07,-1.11, 0.19, 5.15, 1.87, 1.63, 7.17, repro,
2010-10-08,-0.70, 1.13, -3.14, 1.94, 1.67, 7.37, repro,
2010-10-09,-1.55, 0.42, 0.83, 1.90, 1.63, 7.22, repro,
2010-10-10,-1.07, 0.02, 1.97, 1.95, 1.69, 7.42, repro,
2010-10-11,-0.69, 0.34, 2.49, 1.90, 1.64, 7.25, repro,
2010-10-12,-0.36, -1.47, 3.54, 1.88, 1.62, 7.15, repro,
2010-10-13,-1.79, -0.86, -1.03, 1.88, 1.63, 7.19, repro,
2010-10-14,-0.29, 0.16, -3.10, 1.88, 1.66, 7.30, repro,
2010-10-15,-1.86, 0.40, 5.96, 1.88, 1.65, 7.28, repro,
2010-10-16,-1.72, -0.41, 6.09, 1.86, 1.60, 7.02, repro,
2010-10-17,-1.04, -0.36, 1.37, 1.90, 1.65, 7.21, repro,
2010-10-18,-1.97, -0.10, 4.23, 1.92, 1.66, 7.26, repro,
2010-10-19,0.39, 0.10, 8.14, 2.09, 1.79, 7.70, repro,
2010-10-20,-2.15, 0.92, 3.28, 1.90, 1.66, 7.31, repro,
2010-10-21,-0.81, -0.07, 1.66, 1.91, 1.65, 7.23, repro,
2010-10-22,-0.81, 0.38, 6.05, 1.87, 1.62, 7.12, repro,
2010-10-23,-2.03, 0.38, 3.95, 1.90, 1.65, 7.24, repro,
2010-10-24,-1.62, 0.04, 0.03, 1.89, 1.63, 7.18, repro,
2010-10-25,-4.20, 2.92, -2.02, 1.91, 1.64, 7.33, repro,
2010-10-26,-0.96, 1.39, 5.14, 1.85, 1.61, 7.08, repro,
2010-10-27,-0.35, 0.96, 4.73, 1.86, 1.61, 7.10, repro,
2010-10-28,-0.61, 0.70, 1.56, 1.87, 1.61, 7.12, repro,
2010-10-29,-1.48, 1.41, -1.29, 1.86, 1.62, 7.13, repro,
2010-10-30,-0.04, -0.23, -3.16, 1.86, 1.61, 7.13, repro,
2010-10-31,-1.51, 0.77, -4.05, 1.90, 1.71, 7.32, repro,
2010-11-01,-1.42, 0.78, -3.25, 1.92, 1.72, 7.39, repro,
2010-11-02,-0.15, 1.21, -2.74, 1.87, 1.61, 7.16, repro,
2010-11-03,-0.29, 0.37, -2.22, 1.87, 1.60, 7.14, repro,
2010-11-04,-1.61, 0.34, -3.71, 1.86, 1.61, 7.14, repro,
2010-11-05,-0.86, -0.49, 1.13, 1.90, 1.64, 7.21, repro,
2010-11-06,-1.21, -0.04, 1.29, 1.88, 1.63, 7.15, repro,
2010-11-07,-0.16, -0.57, 1.91, 1.87, 1.60, 7.15, repro,
2010-11-08,-2.86, -0.54, 7.21, 1.88, 1.61, 7.17, repro,
2010-11-09,-1.74, -0.83, 5.61, 1.90, 1.65, 7.22, repro,
2010-11-10,-1.84, -0.85, 3.09, 1.88, 1.64, 7.17, repro,
2010-11-11,-1.82, 0.10, 0.13, 1.86, 1.59, 7.10, repro,
2010-11-12,0.08, -1.88, -1.96, 1.86, 1.59, 7.10, repro,
2010-11-13,-0.76, 1.05, -6.21, 1.92, 1.66, 7.33, repro,
2010-11-14,-4.06, -0.93, 6.12, 1.94, 1.68, 7.49, repro,
2010-11-15,2.48, -1.13, 11.41, 1.89, 1.64, 7.33, repro,
2010-11-16,-1.68, 0.98, 0.24, 1.91, 1.66, 7.37, repro,
2010-11-17,-1.28, 2.37, -4.44, 1.94, 1.63, 7.36, repro,
2010-11-18,-1.16, 1.70, -5.95, 1.91, 1.60, 7.23, repro,
2010-11-19,-1.83, 1.21, -1.53, 1.96, 1.64, 7.40, repro,
2010-11-20,-3.88, -0.25, 4.81, 1.89, 1.63, 7.27, repro,
2010-11-21,-5.14, -4.31, -12.62, 2.01, 1.72, 7.54, repro,
2010-11-22,-3.50, -1.59, 0.00, 1.96, 1.71, 7.50, repro,
2010-11-23,-1.85, -0.28, -2.22, 1.90, 1.64, 7.33, repro,
2010-11-24,-0.71, 1.28, 5.29, 1.89, 1.61, 7.22, repro,
2010-11-25,-1.55, -0.31, -6.54, 1.89, 1.62, 7.26, repro,
2010-11-26,-0.77, 0.70, 3.39, 1.89, 1.62, 7.24, repro,
2010-11-27,-2.84, 0.15, 1.15, 1.93, 1.65, 7.49, repro,
2010-11-28,-2.18, -0.90, -3.23, 1.92, 1.62, 7.37, repro,
2010-11-29,-3.05, 0.70, -0.89, 1.93, 1.64, 7.49, repro,
2010-11-30,-0.70, 0.71, -5.42, 1.90, 1.63, 7.36, repro,
2010-12-01,-2.04, 1.00, -6.59, 1.91, 1.63, 7.36, repro,
2010-12-02,-1.77, 0.61, -3.81, 1.89, 1.59, 7.13, repro,
2010-12-03,-1.35, 0.88, -3.71, 1.90, 1.62, 7.31, repro,
2010-12-04,-1.19, 0.24, -5.07, 1.92, 1.63, 7.48, repro,
2010-12-05,-1.55, -0.14, -5.08, 1.92, 1.62, 7.43, repro,
2010-12-06,-2.16, 1.05, -4.36, 1.90, 1.63, 7.30, repro,
2010-12-07,-2.99, 0.82, -4.54, 1.92, 1.66, 7.40, repro,
2010-12-08,-0.89, 0.45, -7.17, 1.87, 1.56, 6.98, repro,
2010-12-09,-0.86, 0.05, -5.90, 1.88, 1.56, 7.07, repro,
2010-12-10,-1.75, 0.87, 2.49, 1.93, 1.61, 7.40, repro,
2010-12-11,-2.56, 1.37, 3.58, 1.89, 1.58, 7.11, repro,
2010-12-12,-3.91, -0.49, -2.18, 1.93, 1.59, 7.30, repro,
2010-12-13,-2.65, 0.74, -2.67, 1.91, 1.57, 7.19, repro,
2010-12-14,-2.16, 0.01, 0.38, 1.97, 1.67, 7.47, repro,
2010-12-15,-4.12, -0.58, 1.56, 1.90, 1.60, 7.25, repro,
2010-12-16,-4.22, 1.51, -3.55, 1.89, 1.61, 7.29, repro,
2010-12-17,-3.35, 0.41, -5.64, 1.93, 1.61, 7.26, repro,
2010-12-18,-2.32, 0.54, -4.67, 1.88, 1.58, 7.07, repro,
2010-12-19,0.46, 4.30, -4.70, 1.89, 1.60, 7.19, repro,
2010-12-20,-4.50, -0.55, 5.39, 1.89, 1.60, 7.23, repro,
2010-12-21,-5.30, -2.02, -0.58, 1.91, 1.62, 7.36, repro,
2010-12-22,-1.25, 0.33, -10.98, 1.97, 1.64, 7.44, repro,
2010-12-23,-0.10, 1.28, -4.94, 1.89, 1.61, 7.30, repro,
2010-12-24,-0.32, 1.31, -4.06, 1.89, 1.60, 7.21, repro,
2010-12-25,-0.39, 2.56, -2.46, 1.87, 1.56, 7.06, repro,
2010-12-26,-1.21, 1.30, -7.02, 1.88, 1.57, 7.13, repro,
2010-12-27,-0.22, 0.72, -11.52, 1.88, 1.56, 7.10, repro,
2010-12-28,2.12, 1.37, -9.28, 1.93, 1.65, 7.40, repro,
2010-12-29,-0.32, -0.48, -1.23, 1.96, 1.67, 7.49, repro,
2010-12-30,-0.61, 2.13, 4.79, 1.93, 1.63, 7.34, repro,
2010-12-31,-0.57, 2.00, 0.43, 1.90, 1.60, 7.28, repro,
2011-01-01,-0.63, 1.21, -1.48, 1.90, 1.60, 7.28, repro,
2011-01-02,0.86, 3.16, -8.66, 2.01, 1.69, 7.64, repro,
2011-01-03,1.14, 1.42, -7.25, 1.92, 1.65, 7.40, repro,
2011-01-04,-0.02, 1.53, -7.39, 1.94, 1.60, 7.29, repro,
2011-01-05,1.34, 1.69, -10.56, 1.87, 1.57, 7.11, repro,
2011-01-06,0.62, 1.67, -6.64, 1.91, 1.63, 7.29, repro,
2011-01-07,-0.65, 1.53, -5.12, 1.92, 1.64, 7.46, repro,
2011-01-08,1.06, 2.39, -8.42, 1.90, 1.61, 7.22, repro,
2011-01-09,-0.38, 3.15, -4.74, 1.88, 1.58, 7.15, repro,
2011-01-10,-0.29, 2.73, -6.62, 1.91, 1.67, 7.40, repro,
2011-01-11,0.17, 2.43, -7.81, 1.96, 1.70, 7.59, repro,
2011-01-12,2.29, 2.21, -8.28, 1.91, 1.58, 7.23, repro,
2011-01-13,0.86, 3.59, -10.22, 1.92, 1.62, 7.29, repro,
2011-01-14,0.01, 0.88, -14.50, 1.90, 1.62, 7.26, repro,
2011-01-15,4.40, 2.63, -11.26, 1.91, 1.64, 7.36, repro,
2011-01-16,0.95, 1.43, -1.60, 1.89, 1.58, 7.21, repro,
2011-01-17,1.32, 2.34, 4.40, 1.90, 1.59, 7.23, repro,
2011-01-18,1.11, 2.06, -0.01, 1.92, 1.62, 7.34, repro,
2011-01-19,1.61, 2.08, -6.79, 1.93, 1.66, 7.43, repro,
2011-01-20,0.02, 3.76, -3.00, 1.88, 1.58, 7.16, repro,
2011-01-21,0.33, 2.27, -2.83, 1.92, 1.63, 7.34, repro,
2011-01-22,1.52, 1.99, 3.08, 1.91, 1.61, 7.26, repro,
2011-01-23,0.76, 2.12, 1.66, 1.95, 1.65, 7.47, repro,
2011-01-24,1.27, 2.05, -4.28, 1.92, 1.64, 7.47, repro,
2011-01-25,1.28, 1.51, -6.64, 1.91, 1.65, 7.41, repro,
2011-01-26,1.94, 2.29, 1.97, 2.06, 1.74, 8.04, repro,
2011-01-27,5.80, 4.05, -7.51, 1.98, 1.73, 7.63, repro,
2011-01-28,1.59, 3.31, 0.29, 1.97, 1.64, 7.56, repro,
2011-01-29,0.25, 1.89, -4.04, 1.87, 1.56, 7.14, repro,
2011-01-30,1.09, 2.61, -10.41, 1.87, 1.57, 7.14, repro,
2011-01-31,-1.07, 1.28, 2.56, 1.92, 1.66, 7.50, repro,
2011-02-01,1.18, 1.55, -9.25, 2.00, 1.73, 7.99, repro,
2011-02-02,3.64, 1.89, -5.25, 1.90, 1.59, 7.27, repro,
2011-02-03,0.60, 0.53, -9.85, 1.89, 1.57, 7.16, repro,
2011-02-04,1.07, -0.81, -1.26, 1.96, 1.69, 7.50, repro,
2011-02-05,5.99, 0.59, -8.73, 1.89, 1.60, 7.30, repro,
2011-02-06,-0.33, 2.50, 1.24, 1.94, 1.66, 7.55, repro,
2011-02-07,2.51, 1.96, -8.90, 1.95, 1.65, 7.56, repro,
2011-02-08,0.93, 1.79, -4.22, 1.94, 1.64, 7.52, repro,
2011-02-09,2.31, 2.34, -4.21, 1.87, 1.57, 7.15, repro,
2011-02-10,0.48, 1.48, -2.13, 1.90, 1.62, 7.30, repro,
2011-02-11,1.24, 1.68, -3.06, 1.93, 1.66, 7.50, repro,
2011-02-12,3.03, 3.16, -1.60, 1.90, 1.61, 7.38, repro,
2011-02-13,2.70, 3.28, -1.72, 1.95, 1.65, 7.46, repro,
2011-02-14,1.59, 0.51, -3.61, 1.90, 1.61, 7.35, repro,
2011-02-15,-0.03, 0.71, -13.37, 1.96, 1.66, 7.56, repro,
2011-02-16,0.68, -0.21, -9.40, 1.96, 1.68, 7.61, repro,
2011-02-17,2.28, -2.75, -2.06, 1.95, 1.67, 7.59, repro,
2011-02-18,2.03, 2.34, 6.57, 1.95, 1.66, 7.48, repro,
2011-02-19,0.72, 3.72, -5.53, 1.89, 1.59, 7.25, repro,
2011-02-20,-1.31, 1.97, -3.55, 1.89, 1.58, 7.25, repro,
2011-02-21,0.57, 1.87, -2.20, 1.89, 1.57, 7.23, repro,
2011-02-22,0.97, 2.62, -3.46, 1.89, 1.60, 7.29, repro,
2011-02-23,1.35, 2.58, 0.74, 1.96, 1.65, 7.44, repro,
2011-02-24,0.32, 2.89, -1.35, 1.88, 1.57, 7.18, repro,
2011-02-25,-0.84, 2.40, -7.24, 1.87, 1.56, 7.17, repro,
2011-02-26,-0.42, 1.54, 0.01, 1.89, 1.57, 7.24, repro,
2011-02-27,0.26, 2.25, 7.60, 1.95, 1.59, 7.33, repro,
2011-02-28,1.16, 2.52, -8.85, 1.87, 1.56, 7.12, repro,
2011-03-01,-0.12, 1.99, -6.46, 1.89, 1.57, 7.21, repro,
2011-03-02,1.74, 0.29, -15.07, 1.92, 1.61, 7.31, repro,
2011-03-03,-0.42, 2.71, -4.40, 1.89, 1.56, 7.20, repro,
2011-03-04,0.88, 3.16, -8.55, 1.93, 1.61, 7.35, repro,
2011-03-05,0.39, 2.31, -10.91, 1.88, 1.56, 7.19, repro,
2011-03-06,1.35, 3.32, -10.57, 1.89, 1.56, 7.21, repro,
2011-03-07,-1.81, 2.07, 1.61, 1.90, 1.61, 7.41, repro,
2011-03-08,0.30, 1.89, -3.59, 1.88, 1.56, 7.16, repro,
2011-03-09,2.29, 2.80, -9.04, 1.86, 1.55, 7.13, repro,
2011-03-10,0.70, 1.46, -7.22, 1.87, 1.52, 7.07, repro,
2011-03-11,0.12, 2.39, -5.19, 1.89, 1.56, 7.20, repro,
2011-03-12,-0.08, 3.86, -3.90, 1.89, 1.57, 7.25, repro,
2011-03-13,-0.88, 3.25, -10.76, 1.93, 1.62, 7.33, repro,
2011-03-14,0.61, 1.89, -10.76, 1.92, 1.59, 7.34, repro,
2011-03-15,1.14, 0.79, -10.87, 1.93, 1.59, 7.31, repro,
2011-03-16,-0.04, -0.40, -7.82, 1.98, 1.60, 7.35, repro,
2011-03-17,-1.39, 2.04, -9.54, 2.03, 1.64, 7.53, repro,
2011-03-18,-0.05, 2.25, -10.77, 1.96, 1.60, 7.38, repro,
2011-03-19,-0.46, 0.73, -9.56, 2.02, 1.67, 7.57, repro,
2011-03-20,-0.39, 0.40, -2.46, 1.92, 1.55, 7.20, repro,
2011-03-21,-0.75, 1.31, 2.34, 1.95, 1.56, 7.23, repro,
2011-03-22,-1.08, 2.98, -4.21, 2.01, 1.60, 7.41, repro,
2011-03-23,-0.54, 2.17, -7.52, 1.95, 1.59, 7.31, repro,
2011-03-24,0.80, 2.40, -2.85, 1.93, 1.57, 7.27, repro,
2011-03-25,0.78, 2.34, -1.79, 2.00, 1.64, 7.51, repro,
2011-03-26,-0.84, 1.98, 0.55, 1.95, 1.59, 7.34, repro,
2011-03-27,0.04, 2.68, -6.57, 1.91, 1.55, 7.21, repro,
2011-03-28,0.18, 3.08, -10.46, 1.90, 1.55, 7.19, repro,
2011-03-29,-0.49, 1.85, -9.57, 1.92, 1.59, 7.29, repro,
2011-03-30,1.82, 1.01, -6.04, 1.90, 1.56, 7.23, repro,
2011-03-31,0.42, -0.10, -1.16, 1.99, 1.63, 7.57, repro,
2011-04-01,1.09, 1.48, -5.61, 1.95, 1.58, 7.29, repro,
2011-04-02,-0.26, 1.42, -3.78, 1.97, 1.60, 7.39, repro,
2011-04-03,-2.24, 1.63, -5.95, 2.01, 1.63, 7.60, repro,
2011-04-04,1.84, 1.96, -7.72, 1.98, 1.62, 7.45, repro,
2011-04-05,0.05, 1.95, -3.78, 1.97, 1.65, 7.57, repro,
2011-04-06,-0.13, 1.00, -0.67, 1.95, 1.59, 7.42, repro,
2011-04-07,0.27, 3.92, -3.75, 1.91, 1.56, 7.25, repro,
2011-04-08,-0.80, -0.97, -9.01, 1.96, 1.59, 7.41, repro,
2011-04-09,0.01, 3.89, -0.04, 1.97, 1.57, 7.31, repro,
2011-04-10,0.70, 2.77, -1.64, 1.95, 1.61, 7.38, repro,
2011-04-11,-0.08, 1.63, -7.28, 1.99, 1.66, 7.52, repro,
2011-04-12,-0.81, 2.13, -6.34, 1.93, 1.62, 7.39, repro,
2011-04-13,-1.55, 1.83, -10.90, 1.90, 1.54, 7.20, repro,
2011-04-14,0.31, 2.89, -1.18, 1.89, 1.55, 7.21, repro,
2011-04-15,-0.50, 2.42, -9.09, 1.89, 1.54, 7.18, repro,
2011-04-16,-1.52, 3.36, -8.33, 1.87, 1.53, 7.12, repro,
2011-04-17,0.13, 2.46, -4.93, 1.87, 1.52, 7.10, repro,
2011-04-18,-2.25, 2.57, 1.23, 1.88, 1.53, 7.14, repro,
2011-04-19,-2.51, 3.27, 0.71, 1.89, 1.53, 7.14, repro,
2011-04-20,0.71, 2.80, -8.55, 1.89, 1.54, 7.20, repro,
2011-04-21,-1.15, 1.33, -4.69, 1.92, 1.59, 7.48, repro,
2011-04-22,-2.12, 3.90, -9.72, 1.87, 1.53, 7.12, repro,
2011-04-23,-2.13, 1.19, -6.22, 1.90, 1.54, 7.23, repro,
2011-04-24,-2.66, 6.54, 5.55, 1.90, 1.54, 7.21, repro,
2011-04-25,0.42, 2.05, -2.02, 1.87, 1.53, 7.10, repro,
2011-04-26,-3.38, 1.87, -1.35, 1.89, 1.54, 7.15, repro,
2011-04-27,-0.45, 2.80, -0.97, 1.86, 1.53, 7.07, repro,
2011-04-28,-1.19, 2.22, -2.93, 1.88, 1.53, 7.14, repro,
2011-04-29,0.30, 2.22, -5.27, 1.88, 1.54, 7.17, repro,
2011-04-30,-0.72, 1.89, -4.08, 1.87, 1.52, 7.05, repro,
2011-05-01,-1.70, 2.49, -3.26, 1.87, 1.53, 7.08, repro,
2011-05-02,-1.19, 2.19, -1.10, 1.87, 1.53, 7.12, repro,
2011-05-03,-0.92, 1.88, -6.19, 1.89, 1.56, 7.19, repro,
2011-05-04,-0.07, 2.15, -4.78, 1.90, 1.56, 7.21, repro,
2011-05-05,-1.14, 2.92, -5.18, 1.93, 1.57, 7.27, repro,
2011-05-06,-1.03, 3.52, -1.47, 1.93, 1.57, 7.33, repro,
2011-05-07,-2.92, 0.53, 2.11, 1.89, 1.59, 7.31, repro,
2011-05-08,-3.44, 2.04, 4.94, 1.91, 1.59, 7.32, repro,
2011-05-09,-3.07, 2.32, 11.18, 1.90, 1.58, 7.30, repro,
2011-05-10,-1.60, 4.33, 5.92, 1.91, 1.58, 7.30, repro,
2011-05-11,-1.69, 3.76, -2.13, 1.87, 1.54, 7.07, repro,
2011-05-12,-1.30, 2.33, -2.56, 1.87, 1.54, 7.11, repro,
2011-05-13,0.39, 2.78, -5.86, 1.89, 1.55, 7.16, repro,
2011-05-14,-2.27, 3.05, -3.33, 1.92, 1.59, 7.32, repro,
2011-05-15,-3.50, 0.26, -3.52, 1.91, 1.58, 7.29, repro,
2011-05-16,-1.46, 4.30, -8.58, 1.92, 1.58, 7.28, repro,
2011-05-17,-2.15, 1.64, -2.87, 1.91, 1.60, 7.32, repro,
2011-05-18,-2.75, 2.41, 3.15, 1.93, 1.59, 7.34, repro,
2011-05-19,-1.31, 2.53, 2.01, 1.94, 1.63, 7.47, repro,
2011-05-20,-2.11, 3.72, -4.26, 1.90, 1.58, 7.26, repro,
2011-05-21,-1.43, 3.16, -3.61, 1.94, 1.61, 7.45, repro,
2011-05-22,-1.49, 2.53, -3.81, 1.91, 1.56, 7.22, repro,
2011-05-23,-4.98, -0.28, -2.51, 1.92, 1.59, 7.29, repro,
2011-05-24,-3.06, 3.13, -7.15, 1.92, 1.57, 7.29, repro,
2011-05-25,-1.59, 2.57, -5.94, 1.94, 1.61, 7.44, repro,
2011-05-26,-2.76, 2.45, 0.49, 1.93, 1.57, 7.32, repro,
2011-05-27,-2.17, 1.42, -5.57, 1.91, 1.56, 7.25, repro,
2011-05-28,-1.41, 0.67, 2.22, 1.91, 1.56, 7.22, repro,
2011-05-29,-0.58, 2.74, 1.68, 1.95, 1.62, 7.52, repro,
2011-05-30,-1.72, 3.44, -5.99, 1.94, 1.62, 7.49, repro,
2011-05-31,-1.81, 2.20, -1.32, 1.91, 1.56, 7.25, repro,
2011-06-01,-1.05, 1.50, -1.92, 1.93, 1.58, 7.32, repro,
2011-06-02,-1.69, 2.11, -0.71, 1.91, 1.57, 7.26, repro,
2011-06-03,-1.78, 2.24, -1.52, 1.91, 1.56, 7.25, repro,
2011-06-04,-2.28, 0.54, -9.05, 1.92, 1.56, 7.27, repro,
2011-06-05,-0.28, 1.92, -2.74, 1.92, 1.56, 7.24, repro,
2011-06-06,0.23, 1.62, -0.92, 1.93, 1.59, 7.41, repro,
2011-06-07,0.03, 2.29, -0.34, 1.91, 1.57, 7.27, repro,
2011-06-08,-1.67, 1.88, 3.65, 1.93, 1.61, 7.32, repro,
2011-06-09,-0.83, 1.84, -4.71, 1.91, 1.56, 7.25, repro,
2011-06-10,0.76, 2.04, -5.54, 1.90, 1.56, 7.23, repro,
2011-06-11,-1.65, 3.22, -3.09, 1.90, 1.57, 7.26, repro,
2011-06-12,-2.55, 1.32, 8.70, 1.95, 1.68, 7.58, repro,
2011-06-13,0.17, 1.26, 0.54, 1.91, 1.56, 7.25, repro,
2011-06-14,-0.25, 1.39, -0.13, 1.91, 1.59, 7.30, repro,
2011-06-15,-0.44, 2.64, -2.00, 1.91, 1.58, 7.32, repro,
2011-06-16,-2.56, 1.70, -2.10, 1.91, 1.57, 7.27, repro,
2011-06-17,-0.24, 1.49, 0.96, 1.91, 1.56, 7.26, repro,
2011-06-18,-1.15, 1.19, 3.38, 1.91, 1.57, 7.27, repro,
2011-06-19,-1.02, -0.11, -0.24, 1.90, 1.57, 7.23, repro,
2011-06-20,-1.18, 1.29, -0.94, 1.93, 1.62, 7.32, repro,
2011-06-21,0.06, 1.50, 2.09, 1.90, 1.57, 7.26, repro,
2011-06-22,-0.35, 2.68, 1.84, 1.92, 1.57, 7.27, repro,
2011-06-23,-0.71, 2.76, -4.01, 1.92, 1.57, 7.29, repro,
2011-06-24,-1.18, 0.83, -1.89, 1.94, 1.61, 7.29, repro,
2011-06-25,-0.91, 0.76, 7.46, 1.90, 1.58, 7.24, repro,
2011-06-26,-1.04, 2.60, -3.52, 1.90, 1.58, 7.25, repro,
2011-06-27,1.31, 1.53, -1.86, 1.91, 1.57, 7.27, repro,
2011-06-28,0.44, 3.07, -8.47, 1.94, 1.59, 7.43, repro,
2011-06-29,2.33, 0.19, -0.53, 1.92, 1.56, 7.30, repro,
2011-06-30,1.03, 0.54, -6.90, 1.96, 1.63, 7.44, repro,
2011-07-01,1.29, 0.40, -1.51, 1.91, 1.59, 7.34, repro,